Regional Weather Roundup
Issued by NWS

Home | Current Version | Previous Version | Text Only | Print | Product List | Glossary Off
Versions: 1 2 3 4 5 6 7 8 9 10 11 12 13 14 15 16 17 18 19 20 21 22 23 24 25 26 27 28 29 30 31 32 33 34 35 36 37 38 39 40 41 42 43 44 45 46 47 48 49 50

000
ASUS43 KMKX 280121
RWRWI

WISCONSIN REGIONAL WEATHER ROUNDUP
NATIONAL WEATHER SERVICE MILWAUKEE/SULLIVAN WI
800 PM CDT WED AUG 27 2014

NOTE: "FAIR" INDICATES FEW OR NO CLOUDS BELOW 12,000 FEET WITH NO
SIGNIFICANT WEATHER AND/OR OBSTRUCTIONS TO VISIBILITY.

WIZ001-002-006>008-014>016-023>028-280200-
NORTHWEST WISCONSIN

CITY           SKY/WX    TMP DP  RH WIND       PRES   REMARKS
SUPERIOR ARPT  CLEAR     62  57  82 CALM      30.12S
ASHLAND        CLEAR     57  53  86 SE3       30.15S
HAYWARD        CLEAR     61  56  83 CALM      30.15S
SIREN          CLEAR     62  56  80 CALM      30.14S
RICE LAKE      CLEAR     64  55  72 CALM      30.16S
LADYSMITH      CLEAR     63  55  76 N3        30.17S
EAU CLAIRE     CLEAR     67  57  70 NE5       30.12F
MENOMONIE      MOCLDY    70  57  62 NE6       30.13S
NEW RICHMOND   CLEAR     66  58  77 NE3       30.14S
OSCEOLA        CLEAR     66  57  73 N3        30.16S
$$

WIZ003>005-009-010-017-018-280200-
NORTH CENTRAL WISCONSIN

CITY           SKY/WX    TMP DP  RH WIND       PRES   REMARKS
WOODRUFF       CLEAR     62  50  65 N7        30.18R
RHINELANDER    CLEAR     58  51  78 CALM      30.17S
EAGLE RIVER    CLEAR     59  47  66 N3        30.17R
LAND O LAKES   CLEAR     57  47  69 CALM      30.19R
PHILLIPS       CLEAR     58  53  82 CALM      30.15F
TOMAHAWK       CLEAR     56  53  87 CALM      30.16S
MEDFORD        CLEAR     59  52  77 CALM      30.15F
MERRILL        CLEAR     58  54  84 CALM      30.15S
$$

WIZ029-030-035-036-043>047-280200-
CENTRAL WISCONSIN

CITY           SKY/WX    TMP DP  RH WIND       PRES   REMARKS
WAUSAU         CLEAR     66  51  58 N3        30.13S
MOSINEE        CLEAR     64  54  68 NW3       30.15S
MARSHFIELD     CLEAR     65  55  70 N3        30.14S
STEVENS POINT  CLEAR     64  55  71 NW3       30.14S
WAUPACA        PTCLDY    68  62  82 CALM      30.13S
WAUTOMA        CLEAR     67  62  84 CALM      30.13S
WISC RAPIDS    CLEAR     67  58  72 N3        30.14S
CAMP DOUGLAS   PTCLDY    69  64  84 NE3       30.12S
$$

WIZ011>013-019>022-031-037>040-048>050-280200-
NORTHEAST WISCONSIN

CITY           SKY/WX    TMP DP  RH WIND       PRES   REMARKS
ANTIGO         CLEAR     60  55  82 CALM      30.16R
STURGEON BAY   CLEAR     61  54  77 SE5       30.15R
GREEN BAY      CLEAR     64  61  90 CALM      30.13S
MANITOWOC      PTCLDY    61  57  87 SE3       30.14S
APPLETON       MOCLDY    66  55  68 CALM      30.13S
CLINTONVILLE   CLOUDY    68  59  73 CALM      30.12S
OSHKOSH        PTCLDY    66  59  78 CALM      30.12S
$$

WIZ032>034-041-042-053>061-280200-
SOUTHWEST WISCONSIN

CITY           SKY/WX    TMP DP  RH WIND       PRES   REMARKS
LA CROSSE      PTCLDY    72  60  66 NE3       30.10F
SPARTA         PTCLDY    66  59  78 CALM      30.12S
VIROQUA        FAIR      65  61  86 CALM      30.13S
BOSCOBEL       MOCLDY    69  62  78 CALM      30.10F
PRAIRIE DU CHI PTCLDY    69  61  77 NE3       30.09S
PLATTEVILLE    FAIR      69  62  79 CALM      30.11S
$$

WIZ056-057-062-063-064-067-068-280200-
SOUTH CENTRAL WISCONSIN

CITY           SKY/WX    TMP DP  RH WIND       PRES   REMARKS
BARABOO/DELLS  MOCLDY    66  60  81 CALM      30.12S
LONE ROCK      MOCLDY    72  63  73 NE3       30.10F
WATERTOWN      MOCLDY    67  62  82 NE3       30.10F
MADISON        MOCLDY    69  60  73 N3        30.10F
MIDDLETON      FAIR      67  60  79 CALM      30.11F
MONROE         PTCLDY    68  61  77 CALM      30.10S
JANESVILLE     CLEAR     72  59  64 NE6       30.09F
$$

WIZ051-052-058>065-066-070>072-280200-
SOUTHEAST WISCONSIN

CITY           SKY/WX    TMP DP  RH WIND       PRES   REMARKS
MILWAUKEE      MOCLDY    66  60  81 E7        30.12F
WAUKESHA       MOCLDY    64  61  88 E7        30.13F
MILWAUKEE/TIMM CLEAR     66  57  72 E6        30.13F
RACINE         MOCLDY    66  61  84 NE7       30.13F
BURLINGTON     MOCLDY    64  61  90 NE5       30.12S
KENOSHA        MOCLDY    64  61  90 NE7       30.12F
FOND DU LAC    PTCLDY    68  56  65 E5        30.12S
SHEBOYGAN      PTCLDY    60  56  86 CALM      30.14S
WEST BEND      PTCLDY    63  55  77 E3        30.14S
JUNEAU         MOCLDY    67  60  77 NE3       30.12F
$$

LSZ147-162-280200-
LAKE SUPERIOR

STATION/POSITION TIME  TEMP    WIND        PRES    WAVE
                       AIR SEA DIR/SP/G            HT/PER
                 (UTC) (F)     (DEG/KT/KT) (MB)    (FT/S)
W MID LAKE BUOY  0050   57 56  200/  6/  6 1021.0F   0
DEVILS ISLAND    0100   61     140/  8/  9 1020.8S
PORT WING        0000   70     190/  3/  4 1020.3F
SAXON HARBOR     0040   60        CALM     1021.0
$$

LMZ867-665-643>646-280200-
LAKE MICHIGAN

STATION/POSITION TIME  TEMP    WIND        PRES    WAVE
                       AIR SEA DIR/SP/G            HT/PER
                 (UTC) (F)     (DEG/KT/KT) (MB)    (FT/S)
N MID LAKE BUOY  0050   63 67   70/  2/  4 1021.1S   0
NORTHPORT PIER   0000   65     160/  5/  7 1020.7S
SISTER BAY       0026   64     140/  5/  7   N/A
KEWAUNEE LAKESHO 0000   65     150/  4/  6 1019.7F
SHEBOYGAN LAKESH 0100   66 69   80/  7/  7 1020.7S
ATWATER BUOY     0100   68      90/  8/ 10 1021.1F
MILWAUKEE LAKESH 0100   67      60/  7/  8   N/A
S MID LAKE BUOY  0050   67 70   20/ 14/ 16 1019.6F   1/ 3
KENOSHA   LAKESH 0100   68      60/  8/ 11 1019.3F
$$

TC  - TEMPERATURE IN CELSIUS
VSB - VISIBILITY IN STATUTE MILES
WCI - WIND CHILL INDEX
HX  - HEAT INDEX




USA.gov is the U.S. government's official web portal to all federal, state and local government web resources and services.